CAPE
613 634 667 561 501 492 605 786 750 788 808 667 443 284 253 100 32 0 0 0 0 0 0 0 0 0 0 0 0 0 0 0
277 296 243 251 298 354 383 380 353 497 523 360 229 122 197 217 103 53 0 0 0 0 0 0 0 0 0 0 0 0 0 0
52 53 25 92 140 257 379 355 240 184 289 252 181 157 51 55 57 41 13 0 0 0 2 0 0 0 0 0 0 0 0 0
183 127 8 5 51 196 92 134 185 201 222 287 249 205 254 125 119 92 100 5 24 43 53 43 5 0 0 0 0 0 0 0
229 223 34 7 28 15 118 164 242 268 409 414 290 249 292 307 159 51 22 0 18 15 23 0 0 0 0 0 0 0 0 0
261 378 116 40 77 37 104 181 344 450 466 299 39 21 8 0 0 0 0 0 0 0 0 0 0 0 0 0 0 0 0 0
233 91 80 49 110 162 211 206 344 531 262 54 18 13 0 0 0 0 0 0 0 0 0 0 0 0 0 0 0 0 0 0
458 141 142 219 231 211 220 148 126 117 81 17 0 1 0 0 0 0 0 0 0 0 0 0 0 0 0 0 0 0 0 2
532 295 292 100 349 339 134 74 65 72 6 19 5 0 0 0 0 0 0 0 0 0 0 0 0 0 0 0 0 0 0 0
387 82 241 342 403 286 317 35 0 0 4 8 4 3 2 0 0 0 0 0 0 0 0 0 0 0 0 0 0 0 0 0
425 61 245 155 229 102 14 10 11 7 0 0 2 17 25 20 5 3 0 0 0 0 0 0 0 0 0 0 0 0 0 0
401 354 208 84 186 40 14 21 27 16 0 0 0 4 17 24 27 19 0 0 0 0 0 0 0 0 0 0 0 0 0 0
301 227 90 35 50 38 38 55 29 11 3 7 1 8 0 0 0 0 0 0 0 0 0 0 0 0 0 0 0 0 0 0
67 95 78 50 38 37 56 43 32 20 15 10 0 0 0 0 0 0 0 0 0 0 0 0 0 0 0 0 0 0 0 0
0 0 0 22 41 48 68 45 5 9 0 0 2 0 0 0 0 0 0 0 0 0 0 0 0 0 0 0 0 0 0 0
0 0 0 0 0 0 0 0 0 0 0 0 0 0 0 0 0 2 4 2 0 0 0 0 0 0 0 8 14 18 0 0
0 0 0 0 0 0 0 0 0 0 0 0 0 2 4 9 10 10 7 0 0 0 0 0 0 5 9 9 7 7 2 0
0 0 0 0 0 0 0 0 0 0 4 5 10 3 4 8 0 0 0 0 0 0 0 0 4 22 29 16 10 15 4 2
0 0 0 0 0 0 0 0 0 9 10 25 45 13 9 3 0 0 0 0 0 0 0 0 0 4 8 3 20 11 0 0
0 0 0 0 0 0 0 7 17 31 14 15 7 1 0 0 0 0 0 0 0 0 0 0 1 0 0 0 1 14 27 25
CIN
-116 -116 -106 -138 -151 -165 -128 -77 -86 -91 -83 -106 -148 -183 -190 -217 -224 -0 -0 -0 -0 -0 -0 -0 -0 -0 -0 -0 -0 -0 -0 -0
-223 -218 -247 -260 -256 -230 -194 -194 -204 -154 -147 -185 -211 -233 -186 -153 -195 -200 -0 -0 -0 -0 -0 -0 -0 -0 -0 -0 -0 -0 -0 -0
-244 -300 -303 -341 -310 -251 -205 -208 -235 -257 -186 -205 -145 -147 -148 -120 -123 -122 -98 -0 -0 -0 -56 -0 -0 -0 -0 -0 -0 -0 -0 -0
-85 -118 -118 -175 -299 -263 -247 -289 -128 -127 -114 -114 -118 -123 -88 -106 -103 -212 -182 -221 -196 -161 -132 -128 -56 -0 -0 -0 -0 -0 -0 -0
-104 -121 -130 -184 -150 -130 -131 -122 -103 -108 -84 -94 -83 -100 -78 -83 -82 -101 -140 -0 -171 -165 -129 -0 -0 -0 -0 -0 -0 -0 -0 -0
-95 -130 -170 -157 -97 -110 -115 -130 -85 -70 -59 -42 -80 -80 -89 -0 -0 -0 -0 -0 -0 -0 -0 -0 -0 -0 -0 -0 -0 -0 -0 -0
-19 -160 -150 -238 -173 -153 -135 -102 -77 -39 -46 -75 -101 -100 -0 -0 -0 -0 -0 -0 -0 -0 -0 -0 -0 -0 -0 -0 -0 -0 -0 -0
-35 -71 -131 -108 -71 -47 -62 -42 -45 -64 -82 -83 -10 -50 -0 -0 -0 -0 -0 -0 -0 -0 -0 -0 -0 -0 -0 -0 -0 -0 -0 -2
-65 -144 -115 -166 -107 -63 -63 -40 -81 -84 -110 -164 -144 -0 -3 -0 -0 -0 -0 -0 -0 -0 -0 -0 -0 -0 -0 -0 -0 -0 -0 -0
-68 -280 -113 -120 -90 -82 -57 -69 -16 -15 -101 -85 -73 -118 -97 -0 -0 -0 -0 -0 -0 -0 -0 -0 -0 -0 -0 -0 -0 -0 -0 -0
-38 -17 -146 -106 -83 -60 -56 -58 -23 -86 -0 -0 -34 -24 -7 -11 -11 -2 -1 -0 -0 -0 -0 -0 -0 -0 -0 -0 -0 -0 -0 -0
-48 -36 -93 -65 -72 -73 -36 -46 -26 -10 -0 -0 -0 -9 -1 -2 -2 -3 -0 -0 -0 -0 -0 -0 -0 -0 -0 -0 -0 -0 -0 -0
-95 -95 -86 -50 -52 -44 -34 -38 -15 -4 -4 -4 -0 -6 -0 -0 -6 -0 -0 -0 -0 -0 -0 -0 -0 -0 -0 -0 -0 -0 -0 -0
-50 -82 -60 -24 -26 -28 -19 -1 -0 -4 -7 -33 -0 -0 -0 -0 -0 -0 -0 -0 -0 -0 -0 -0 -0 -0 -0 -0 -0 -0 -0 -0
-0 -0 -8 -3 -1 -1 -0 -0 -3 -7 -0 -0 -14 -0 -0 -0 -0 -0 -0 -0 -0 -0 -0 -0 -0 -0 -0 -0 -0 -0 -0 -0
-0 -0 -0 -0 -0 -0 -0 -0 -0 -0 -0 -0 -0 -0 -0 -0 -0 -1 -0 -1 -0 -0 -0 -0 -0 -0 -0 -9 -4 -4 -0 -0
-0 -0 -0 -0 -0 -0 -0 -0 -0 -0 -0 -0 -0 -0 -0 -3 -0 -0 -0 -0 -0 -0 -0 -0 -0 -1 -2 -1 -10 -15 -15 -0
-0 -0 -0 -0 -0 -0 -0 -0 -0 -0 -2 -0 -0 -1 -1 -4 -3 -0 -0 -0 -0 -0 -0 -0 -2 -3 -0 -1 -3 -0 -0 -1
-0 -0 -0 -0 -0 -0 -0 -0 -0 -2 -2 -1 -1 -2 -2 -0 -0 -0 -0 -0 -0 -0 -0 -0 -0 -2 -2 -1 -0 -1 -0 -0
-0 -0 -0 -0 -0 -0 -0 -0 -0 -0 -0 -1 -0 -0 -0 -0 -0 -0 -0 -0 -0 -0 -0 -0 -22 -0 -0 -0 -1 -6 -4 -5
Wind_Speed
8 9 10 14 14 17 18 20 21 22 22 22 25 26 25 27 nan nan nan nan nan nan nan nan nan nan nan nan nan nan nan nan
8 8 10 12 14 20 19 21 24 22 24 26 26 28 26 25 26 nan nan nan nan nan nan nan nan nan nan nan nan nan nan nan
nan nan nan nan 16 17 21 22 23 27 25 28 27 25 nan nan nan nan nan nan nan nan nan nan nan nan nan nan nan nan nan nan
14 16 nan nan nan 15 nan 19 20 22 24 25 24 24 24 25 24 nan 24 nan nan nan nan nan nan nan nan nan nan nan nan nan
17 18 nan nan nan nan 18 19 23 25 25 25 27 26 28 30 29 nan nan nan nan nan nan nan nan nan nan nan nan nan nan nan
20 19 21 nan nan nan 23 26 27 27 26 30 nan nan nan nan nan nan nan nan nan nan nan nan nan nan nan nan nan nan nan nan
26 nan nan nan 21 18 23 28 37 31 27 nan nan nan nan nan nan nan nan nan nan nan nan nan nan nan nan nan nan nan nan nan
24 25 21 24 20 37 37 36 36 32 nan nan nan nan nan nan nan nan nan nan nan nan nan nan nan nan nan nan nan nan nan nan
31 18 21 29 30 32 41 nan nan nan nan nan nan nan nan nan nan nan nan nan nan nan nan nan nan nan nan nan nan nan nan nan
39 nan 34 33 36 34 37 nan nan nan nan nan nan nan nan nan nan nan nan nan nan nan nan nan nan nan nan nan nan nan nan nan
28 nan 36 38 39 33 nan nan nan nan nan nan nan nan nan nan nan nan nan nan nan nan nan nan nan nan nan nan nan nan nan nan
29 36 36 nan 42 nan nan nan nan nan nan nan nan nan nan nan nan nan nan nan nan nan nan nan nan nan nan nan nan nan nan nan
35 38 nan nan nan nan nan nan nan nan nan nan nan nan nan nan nan nan nan nan nan nan nan nan nan nan nan nan nan nan nan nan
nan nan nan nan nan nan nan nan nan nan nan nan nan nan nan nan nan nan nan nan nan nan nan nan nan nan nan nan nan nan nan nan
nan nan nan nan nan nan nan nan nan nan nan nan nan nan nan nan nan nan nan nan nan nan nan nan nan nan nan nan nan nan nan nan
nan nan nan nan nan nan nan nan nan nan nan nan nan nan nan nan nan nan nan nan nan nan nan nan nan nan nan nan nan nan nan nan
nan nan nan nan nan nan nan nan nan nan nan nan nan nan nan nan nan nan nan nan nan nan nan nan nan nan nan nan nan nan nan nan
nan nan nan nan nan nan nan nan nan nan nan nan nan nan nan nan nan nan nan nan nan nan nan nan nan nan nan nan nan nan nan nan
nan nan nan nan nan nan nan nan nan nan nan nan nan nan nan nan nan nan nan nan nan nan nan nan nan nan nan nan nan nan nan nan
nan nan nan nan nan nan nan nan nan nan nan nan nan nan nan nan nan nan nan nan nan nan nan nan nan nan nan nan nan nan nan nan
Wind_Direction
216 239 270 284 298 297 300 302 307 307 310 310 305 306 309 306 nan nan nan nan nan nan nan nan nan nan nan nan nan nan nan nan
244 262 279 287 290 299 303 307 311 314 314 308 306 305 310 313 311 nan nan nan nan nan nan nan nan nan nan nan nan nan nan nan
nan nan nan nan 289 303 312 316 316 315 312 307 309 311 nan nan nan nan nan nan nan nan nan nan nan nan nan nan nan nan nan nan
292 283 nan nan nan 302 nan 306 305 298 302 312 312 318 319 314 315 nan 321 nan nan nan nan nan nan nan nan nan nan nan nan nan
292 300 nan nan nan nan 296 294 293 299 308 310 313 316 317 316 316 nan nan nan nan nan nan nan nan nan nan nan nan nan nan nan
292 305 309 nan nan nan 313 306 308 306 311 315 nan nan nan nan nan nan nan nan nan nan nan nan nan nan nan nan nan nan nan nan
292 nan nan nan 295 310 312 303 312 300 309 nan nan nan nan nan nan nan nan nan nan nan nan nan nan nan nan nan nan nan nan nan
307 312 330 327 286 296 295 307 313 304 nan nan nan nan nan nan nan nan nan nan nan nan nan nan nan nan nan nan nan nan nan nan
319 297 313 321 320 306 307 nan nan nan nan nan nan nan nan nan nan nan nan nan nan nan nan nan nan nan nan nan nan nan nan nan
330 nan 319 315 313 312 310 nan nan nan nan nan nan nan nan nan nan nan nan nan nan nan nan nan nan nan nan nan nan nan nan nan
307 nan 312 309 304 316 nan nan nan nan nan nan nan nan nan nan nan nan nan nan nan nan nan nan nan nan nan nan nan nan nan nan
304 308 307 nan 304 nan nan nan nan nan nan nan nan nan nan nan nan nan nan nan nan nan nan nan nan nan nan nan nan nan nan nan
301 303 nan nan nan nan nan nan nan nan nan nan nan nan nan nan nan nan nan nan nan nan nan nan nan nan nan nan nan nan nan nan
nan nan nan nan nan nan nan nan nan nan nan nan nan nan nan nan nan nan nan nan nan nan nan nan nan nan nan nan nan nan nan nan
nan nan nan nan nan nan nan nan nan nan nan nan nan nan nan nan nan nan nan nan nan nan nan nan nan nan nan nan nan nan nan nan
nan nan nan nan nan nan nan nan nan nan nan nan nan nan nan nan nan nan nan nan nan nan nan nan nan nan nan nan nan nan nan nan
nan nan nan nan nan nan nan nan nan nan nan nan nan nan nan nan nan nan nan nan nan nan nan nan nan nan nan nan nan nan nan nan
nan nan nan nan nan nan nan nan nan nan nan nan nan nan nan nan nan nan nan nan nan nan nan nan nan nan nan nan nan nan nan nan
nan nan nan nan nan nan nan nan nan nan nan nan nan nan nan nan nan nan nan nan nan nan nan nan nan nan nan nan nan nan nan nan
nan nan nan nan nan nan nan nan nan nan nan nan nan nan nan nan nan nan nan nan nan nan nan nan nan nan nan nan nan nan nan nan